[[{"header":{"parameterUnit":"m.s-1","parameterCategory":1,"la1":30.2991,"la2":30.254,"lo1":-89.0895,"lo2":-89.0444,"dy":0.0017,"dx":0.0017,"nx":28,"ny":28,"refTime":"2025-08-05T03:00:00:Z","depth":0,"parameterNumber":2,"parameterNumberName":"U-component_of_WINDS"},"data":[0,0,0,0,0,0,0,0,0,0,0,0,0,0,0,0,0,0,0,0,0,0,0,0,0,0,0,0,0,0,0,0,0,0,0,0,0,0,0,0,0,0,0,0,0,0,0,0,0,0,0,0,0,0,0,0,0,0,-2.1955,-2.1955,0,-2.1936,-2.1936,-2.1936,-2.1882,-2.188,-2.1879,-2.1878,-2.1859,-2.186,-2.186,0,0,0,0,0,0,0,0,0,0,0,0,0,-2.1946,-2.1946,-2.1955,-2.1955,-2.1955,-2.1936,-2.1936,-2.1936,-2.1882,-2.188,-2.1879,-2.1878,-2.1859,-2.186,-2.186,0,0,0,0,0,0,0,0,0,0,0,0,0,-2.194,-2.1946,-2.1956,-2.1926,-2.1923,-2.1936,-2.1936,-2.1936,-2.1882,-2.188,-2.1879,-2.1877,-2.1859,-2.1859,-2.186,-2.1901,0,0,-2.1863,-2.1863,0,0,0,0,0,0,0,0,-2.1941,-2.1941,-2.193,-2.1928,-2.1925,-2.1909,-2.1925,-2.1924,-2.1883,-2.1898,-2.1878,-2.1876,-2.1877,-2.1877,-2.1877,-2.19,-2.1899,-2.1863,-2.1864,-2.1864,-2.1864,0,0,0,0,0,0,0,-2.1941,-2.1941,-2.1948,-2.193,-2.1927,-2.1913,-2.1911,-2.1925,-2.1898,-2.1896,-2.1892,-2.1891,-2.1875,-2.1876,-2.1876,-2.1899,-2.1863,-2.1864,-2.1864,-2.1865,-2.1953,-2.1954,0,0,0,0,0,0,-2.1946,-2.1942,-2.1948,-2.1947,-2.1929,-2.1915,-2.1912,-2.1916,-2.1897,-2.1893,-2.1892,-2.1888,-2.1875,-2.1875,-2.1875,-2.192,-2.1864,-2.1865,-2.1865,-2.1951,-2.1953,-2.1955,0,0,0,0,0,0,-2.1946,-2.1947,-2.1949,-2.1944,-2.1943,-2.1917,-2.1922,-2.1917,-2.1917,-2.1894,-2.1889,-2.1898,-2.1874,-2.1874,-2.1894,-2.1918,-2.1865,-2.1866,-2.1949,-2.1952,-2.1954,-2.2011,0,0,0,0,0,0,-2.1946,-2.1947,-2.1963,-2.1944,-2.1943,-2.1969,-2.1924,-2.1918,-2.1919,-2.1913,-2.1898,-2.1894,-2.1873,-2.1893,-2.1895,-2.1919,-2.1867,-2.1946,-2.195,-2.1953,-2.2006,-2.2015,-2.2022,0,0,0,0,0,-2.1946,-2.198,-2.1964,-2.1965,-2.1962,-2.1971,-2.197,-2.1945,-2.1921,-2.1936,-2.1921,-2.1894,-2.1916,-2.1896,-2.1898,-2.1922,-2.1945,-2.1949,-2.1953,-2.2003,-2.2013,-2.2022,0,0,0,0,0,0,-2.2002,-2.1977,-2.1959,-2.1988,-2.1982,-2.1962,-2.1979,-2.1957,-2.1957,-2.1952,-2.1921,-2.1918,-2.1943,-2.1934,-2.1913,-2.1959,-2.1926,-2.1931,-2.1963,-2.1973,-2.1981,-2.1981,-2.1867,0,0,0,0,0,-2.2018,-2.2027,-2.2005,-2.2033,-2.203,-2.2006,-2.2009,-2.1989,-2.1982,-2.1979,-2.1966,-2.1959,-2.1964,-2.1968,-2.1972,-2.2005,-2.2,-2.2023,-2.2031,-2.2037,-2.2041,-2.2056,-2.2065,-2.1968,-2.1968,-2.1968,0,0,-2.205,-2.2038,-2.2046,-2.2043,-2.2036,-2.2046,-2.2004,-2.2016,-2.2023,-2.1981,-2.1999,-2.1989,-2.198,-2.2007,-2.2018,-2.2001,-2.2067,-2.2042,-2.2048,-2.2048,-2.2061,-2.2071,-2.2079,-2.1971,-2.1971,-2.197,0,0,-2.2114,-2.2107,-2.2128,-2.2122,-2.2111,-2.2095,-2.21,-2.2083,-2.2075,-2.2092,-2.206,-2.2068,-2.2078,-2.2072,-2.2071,-2.2132,-2.2107,-2.2134,-2.2175,-2.219,-2.2198,-2.2204,-2.2224,-2.2232,-2.2139,-2.2139,-2.2139,0,-2.2156,-2.217,-2.2142,-2.2156,-2.2156,-2.2118,-2.2139,-2.2134,-2.2126,-2.2126,-2.2107,-2.2118,-2.2109,-2.2133,-2.2148,-2.2149,-2.2153,-2.2135,-2.2199,-2.2205,-2.2211,-2.223,-2.2238,-2.2142,-2.2142,-2.2141,-2.2141,0,-2.2221,-2.2231,-2.2249,-2.2241,-2.2243,-2.2261,-2.2236,-2.2241,-2.2221,-2.2207,-2.2224,-2.2213,-2.2212,-2.2217,-2.2199,-2.2238,-2.2228,-2.2205,-2.217,-2.2224,-2.2241,-2.2248,-2.2147,-2.2145,-2.2144,-2.2144,0,0,-2.2319,-2.2295,-2.2303,-2.2298,-2.2283,-2.229,-2.2306,-2.2305,-2.2309,-2.2305,-2.2317,-2.2326,-2.2303,-2.2302,-2.2283,-2.2296,-2.2343,-2.2271,-2.227,-2.2283,-2.2384,-2.24,-2.2409,-2.2327,-2.2329,-2.233,-2.2384,0,-2.2379,-2.2403,-2.2379,-2.2408,-2.2416,-2.238,-2.2394,-2.2386,-2.2373,-2.2377,-2.2363,-2.2369,-2.234,-2.2338,-2.2351,-2.2335,-2.2363,-2.2331,-2.2337,-2.2337,-2.2338,-2.2419,-2.2436,-2.2488,-2.2391,-2.2392,-2.2393,0,-2.2451,-2.2449,-2.2479,-2.2461,-2.2463,-2.2476,-2.2473,-2.2478,-2.2468,-2.2458,-2.2455,-2.2432,-2.2445,-2.2413,-2.2431,-2.241,-2.2411,-2.2404,-2.2405,-2.2403,-2.2367,-2.2417,-2.2504,-2.2511,-2.2404,-2.2403,-2.2402,0,-2.2517,-2.2522,-2.254,-2.2538,-2.2518,-2.2527,-2.252,-2.2508,-2.2509,-2.2507,-2.2506,-2.2506,-2.2505,-2.2505,-2.2482,-2.2461,-2.2502,-2.2468,-2.2492,-2.2493,-2.2501,-2.25,-2.2587,-2.2505,-2.2505,-2.2505,-2.2505,0,-2.2585,-2.2604,-2.257,-2.2581,-2.2601,-2.2573,-2.2594,-2.2583,-2.2573,-2.2581,-2.255,-2.2558,-2.2528,-2.2532,-2.2515,-2.2531,-2.2531,-2.2522,-2.2517,-2.2524,-2.2525,-2.2523,-2.2518,-2.2507,-2.2506,-2.2506,-2.2506,0,-2.2662,-2.264,-2.2657,-2.2637,-2.2632,-2.2648,-2.263,-2.2639,-2.2624,-2.2634,-2.2635,-2.2611,-2.2615,-2.2592,-2.2592,-2.258,-2.2604,-2.2594,-2.2607,-2.2603,-2.2628,-2.2625,-2.2715,-2.2725,-2.2638,-2.2639,-2.264,0,-2.2706,-2.2719,-2.27,-2.2703,-2.2697,-2.2702,-2.2702,-2.2675,-2.2676,-2.2666,-2.2676,-2.2678,-2.2677,-2.2685,-2.2667,-2.2666,-2.2654,-2.2686,-2.2654,-2.266,-2.2653,-2.2651,-2.2652,-2.2692,-2.2693,-2.2694,-2.2695,0,-2.2785,-2.2773,-2.2774,-2.2772,-2.2773,-2.2769,-2.2764,-2.2768,-2.2738,-2.2742,-2.2745,-2.2744,-2.2744,-2.2745,-2.2741,-2.2732,-2.2708,-2.2705,-2.2711,-2.2717,-2.2723,-2.2718,-2.2623,-2.2703,-2.2702,-2.2702,-2.2701,-2.2701,-2.2845,-2.2855,-2.2843,-2.2845,-2.2838,-2.2834,-2.2841,-2.2826,-2.2828,-2.2825,-2.2809,-2.2814,-2.2804,-2.2795,-2.2789,-2.2793,-2.2778,-2.2786,-2.2788,-2.279,-2.2793,-2.2724,-2.2793,-2.2792,-2.2792,-2.2792,-2.2792,0,-2.2921,-2.2911,-2.2914,-2.2906,-2.2908,-2.2886,-2.2878,-2.2881,-2.2886,-2.2878,-2.2878,-2.2881,-2.2882,-2.2864,-2.2862,-2.2869,-2.2858,-2.2869,-2.2867,-2.2865,-2.2808,-2.2803,-2.2878,-2.2878,-2.2878,-2.2878,-2.2878,-2.2878,-2.2961,-2.2976,-2.2962,-2.2973,-2.2963,-2.2968,-2.2966,-2.2961,-2.2954,-2.2959,-2.2959,-2.2947,-2.2935,-2.2932,-2.2932,-2.2926,-2.2926,-2.2941,-2.2932,-2.2878,-2.287,-2.2862,-2.2856,-2.2942,-2.2942,-2.2989,-2.2989,-2.299]},{"header":{"parameterUnit":"m.s-1","parameterCategory":1,"la1":30.2991,"la2":30.254,"lo1":-89.0895,"lo2":-89.0444,"dy":0.0017,"dx":0.0017,"nx":28,"ny":28,"refTime":"2025-08-05T03:00:00:Z","depth":0,"parameterNumber":3,"parameterNumberName":"V-component_of_WINDS"},"data":[0,0,0,0,0,0,0,0,0,0,0,0,0,0,0,0,0,0,0,0,0,0,0,0,0,0,0,0,0,0,0,0,0,0,0,0,0,0,0,0,0,0,0,0,0,0,0,0,0,0,0,0,0,0,0,0,0,0,-1.5902,-1.5902,0,-1.5891,-1.5891,-1.5891,-1.5902,-1.5902,-1.5903,-1.5903,-1.5891,-1.589,-1.5889,0,0,0,0,0,0,0,0,0,0,0,0,0,-1.5929,-1.5928,-1.5902,-1.5902,-1.5902,-1.5891,-1.5891,-1.5891,-1.5902,-1.5902,-1.5903,-1.5903,-1.5891,-1.589,-1.5889,0,0,0,0,0,0,0,0,0,0,0,0,0,-1.5917,-1.5928,-1.5902,-1.5906,-1.5906,-1.5891,-1.5891,-1.5891,-1.5902,-1.5902,-1.5903,-1.5904,-1.5891,-1.589,-1.5889,-1.5869,0,0,-1.5886,-1.5885,0,0,0,0,0,0,0,0,-1.5918,-1.5916,-1.5906,-1.5906,-1.5906,-1.5899,-1.5896,-1.5884,-1.5902,-1.5903,-1.5903,-1.5904,-1.5893,-1.5892,-1.5888,-1.5869,-1.5868,-1.5886,-1.5885,-1.5884,-1.5884,0,0,0,0,0,0,0,-1.5919,-1.5917,-1.5898,-1.5905,-1.5906,-1.5907,-1.5906,-1.5894,-1.5895,-1.5903,-1.5904,-1.5903,-1.5893,-1.5889,-1.5888,-1.5868,-1.5886,-1.5885,-1.5884,-1.5883,-1.5828,-1.5828,0,0,0,0,0,0,-1.5919,-1.5917,-1.5898,-1.5897,-1.5914,-1.5906,-1.5905,-1.59,-1.5895,-1.5895,-1.5902,-1.5903,-1.5891,-1.5889,-1.5887,-1.5861,-1.5884,-1.5883,-1.5883,-1.5829,-1.5828,-1.5827,0,0,0,0,0,0,-1.592,-1.5918,-1.5899,-1.5908,-1.5905,-1.5905,-1.5899,-1.59,-1.5896,-1.5894,-1.5894,-1.5898,-1.5891,-1.5889,-1.5873,-1.5861,-1.5883,-1.5882,-1.583,-1.5829,-1.5828,-1.5811,0,0,0,0,0,0,-1.5921,-1.5918,-1.5911,-1.5907,-1.5905,-1.5885,-1.5899,-1.5899,-1.5894,-1.5896,-1.589,-1.589,-1.5891,-1.5875,-1.5872,-1.586,-1.5881,-1.5831,-1.5829,-1.5828,-1.5812,-1.5809,-1.5807,0,0,0,0,0,-1.5922,-1.5907,-1.5911,-1.5908,-1.5897,-1.5885,-1.5883,-1.5886,-1.5893,-1.5886,-1.5884,-1.589,-1.5863,-1.5873,-1.587,-1.5858,-1.5832,-1.583,-1.5828,-1.5814,-1.581,-1.5807,0,0,0,0,0,0,-1.591,-1.5907,-1.5911,-1.5895,-1.589,-1.5887,-1.5878,-1.5882,-1.5874,-1.5876,-1.5879,-1.5877,-1.586,-1.5857,-1.5868,-1.5837,-1.5849,-1.5846,-1.5839,-1.5835,-1.5832,-1.5832,-1.588,0,0,0,0,0,-1.5905,-1.5897,-1.5894,-1.5881,-1.5878,-1.5878,-1.5873,-1.5875,-1.587,-1.5868,-1.5865,-1.5859,-1.5848,-1.5842,-1.5833,-1.5812,-1.581,-1.5802,-1.5799,-1.5797,-1.5794,-1.578,-1.5776,-1.5821,-1.5821,-1.5821,0,0,-1.5896,-1.5893,-1.5888,-1.5878,-1.5874,-1.5864,-1.5876,-1.5865,-1.5857,-1.5866,-1.585,-1.5847,-1.5841,-1.5822,-1.5813,-1.5819,-1.5781,-1.5795,-1.5793,-1.5791,-1.5778,-1.5774,-1.577,-1.582,-1.582,-1.582,0,0,-1.5873,-1.5871,-1.5858,-1.5854,-1.5848,-1.5848,-1.5845,-1.584,-1.5839,-1.5823,-1.5829,-1.5818,-1.5802,-1.5796,-1.5791,-1.5763,-1.5767,-1.576,-1.5744,-1.573,-1.5726,-1.5723,-1.5711,-1.5706,-1.5757,-1.5757,-1.5757,0,-1.5862,-1.5848,-1.5851,-1.5839,-1.5833,-1.5841,-1.5826,-1.5822,-1.5813,-1.5808,-1.5815,-1.5792,-1.5789,-1.5767,-1.576,-1.5756,-1.5751,-1.576,-1.5727,-1.5724,-1.5721,-1.5709,-1.5704,-1.5756,-1.5756,-1.5757,-1.5757,0,-1.5833,-1.5822,-1.5812,-1.5803,-1.5797,-1.5784,-1.5784,-1.5776,-1.5778,-1.5777,-1.5759,-1.5755,-1.5743,-1.5738,-1.5741,-1.5716,-1.5719,-1.5727,-1.5738,-1.5715,-1.5704,-1.5699,-1.5755,-1.5755,-1.5756,-1.5756,0,0,-1.5803,-1.5795,-1.5791,-1.5785,-1.5778,-1.577,-1.5756,-1.5745,-1.5737,-1.573,-1.5717,-1.5702,-1.5707,-1.5701,-1.5703,-1.5691,-1.5666,-1.5699,-1.5699,-1.5691,-1.5634,-1.5628,-1.5623,-1.5669,-1.5668,-1.5668,-1.5634,0,-1.5778,-1.5755,-1.5756,-1.5734,-1.5722,-1.5728,-1.5715,-1.5709,-1.5707,-1.5695,-1.5693,-1.5681,-1.5691,-1.5686,-1.5675,-1.5671,-1.5654,-1.5674,-1.5654,-1.5654,-1.5654,-1.5617,-1.5611,-1.5579,-1.563,-1.5629,-1.5629,0,-1.5747,-1.5738,-1.5714,-1.5706,-1.5701,-1.569,-1.5679,-1.5669,-1.566,-1.5659,-1.5651,-1.5654,-1.5638,-1.5651,-1.5627,-1.564,-1.5632,-1.5629,-1.5627,-1.5624,-1.5639,-1.5611,-1.557,-1.5564,-1.5622,-1.5623,-1.5623,0,-1.5724,-1.5707,-1.5689,-1.5685,-1.5676,-1.5668,-1.5663,-1.5656,-1.5648,-1.5637,-1.5632,-1.562,-1.5612,-1.5602,-1.56,-1.5611,-1.5575,-1.5589,-1.5572,-1.5572,-1.5563,-1.5563,-1.5518,-1.5561,-1.5561,-1.5562,-1.5562,0,-1.5696,-1.568,-1.5679,-1.5668,-1.565,-1.5651,-1.5632,-1.5629,-1.5621,-1.5608,-1.5613,-1.56,-1.56,-1.5586,-1.5585,-1.5563,-1.5561,-1.5558,-1.5557,-1.5556,-1.5556,-1.555,-1.5551,-1.556,-1.5561,-1.5561,-1.5561,0,-1.5668,-1.5667,-1.5647,-1.564,-1.5637,-1.5624,-1.5617,-1.5605,-1.5603,-1.5586,-1.5582,-1.5578,-1.5562,-1.5559,-1.5541,-1.554,-1.5513,-1.5516,-1.5516,-1.5516,-1.5498,-1.5498,-1.5445,-1.5437,-1.5488,-1.5487,-1.5487,0,-1.5649,-1.5637,-1.5627,-1.5619,-1.5614,-1.5601,-1.5593,-1.5593,-1.5583,-1.5571,-1.556,-1.5545,-1.5532,-1.5506,-1.55,-1.5485,-1.5486,-1.5469,-1.5484,-1.5482,-1.5483,-1.5483,-1.548,-1.5465,-1.5465,-1.5464,-1.5464,0,-1.5614,-1.5614,-1.5602,-1.5589,-1.5579,-1.5569,-1.5559,-1.5552,-1.555,-1.5539,-1.5523,-1.5513,-1.5493,-1.5477,-1.5461,-1.5455,-1.5458,-1.5459,-1.5454,-1.5452,-1.5451,-1.5448,-1.5505,-1.546,-1.546,-1.5461,-1.5461,-1.5461,-1.5589,-1.5577,-1.5568,-1.5554,-1.5546,-1.5536,-1.5524,-1.552,-1.5506,-1.549,-1.5491,-1.5472,-1.5461,-1.544,-1.5433,-1.5417,-1.5422,-1.5415,-1.5413,-1.5411,-1.5408,-1.5455,-1.5414,-1.5414,-1.5414,-1.5414,-1.5414,0,-1.5552,-1.5546,-1.5533,-1.5519,-1.5507,-1.5512,-1.5501,-1.549,-1.5473,-1.5463,-1.545,-1.5429,-1.5413,-1.5405,-1.5388,-1.5376,-1.5376,-1.5371,-1.5371,-1.5369,-1.5405,-1.541,-1.5371,-1.5371,-1.5371,-1.5371,-1.5371,-1.5371,-1.5532,-1.5512,-1.5509,-1.5484,-1.5478,-1.546,-1.5452,-1.5442,-1.5434,-1.541,-1.5396,-1.5392,-1.5381,-1.5363,-1.5347,-1.5345,-1.5337,-1.533,-1.5328,-1.5362,-1.5367,-1.5371,-1.5375,-1.5329,-1.5329,-1.5293,-1.5292,-1.5292]}]]